﻿"﻿平均氣溫 (攝氏度) - �_��F(�V����)"
"Mean Temperature (°C) - Pak Tam Chung (Tsak Yue Wu)"
年/Year,月/Month,日/Day,數值/Value,"數據完整性/data Completeness"
1995,10,1,26.8,C
1995,10,2,25.5,C
1995,10,3,26.2,C
1995,10,4,26.8,C
1995,10,5,24.5,#
1995,10,6,23.8,C
1995,10,7,24.0,C
1995,10,8,24.5,C
1995,10,9,25.1,C
1995,10,10,25.1,C
1995,10,11,25.6,#
1995,10,12,25.1,#
1995,10,13,25.2,#
1995,10,14,25.0,C
1995,10,15,23.4,C
1995,10,16,24.2,#
1995,10,17,23.6,C
1995,10,18,22.9,C
1995,10,19,23.1,C
1995,10,20,23.4,#
1995,10,21,23.7,#
1995,10,22,***,
1995,10,23,***,
1995,10,24,***,
1995,10,25,***,
1995,10,26,***,
1995,10,27,24.0,#
1995,10,28,22.5,#
1995,10,29,20.1,#
1995,10,30,20.7,#
1995,10,31,22.9,C
1995,11,1,21.6,C
1995,11,2,19.0,#
1995,11,3,19.5,C
1995,11,4,20.2,C
1995,11,5,20.5,C
1995,11,6,22.1,C
1995,11,7,22.1,C
1995,11,8,20.0,C
1995,11,9,17.7,C
1995,11,10,20.1,C
1995,11,11,18.1,C
1995,11,12,18.6,C
1995,11,13,20.4,C
1995,11,14,18.6,C
1995,11,15,16.1,C
1995,11,16,16.5,C
1995,11,17,17.9,C
1995,11,18,20.8,C
1995,11,19,21.0,C
1995,11,20,19.0,C
1995,11,21,16.1,#
1995,11,22,17.6,#
1995,11,23,18.0,#
1995,11,24,13.0,C
1995,11,25,12.1,C
1995,11,26,16.2,C
1995,11,27,18.0,C
1995,11,28,19.0,C
1995,11,29,19.8,C
1995,11,30,17.6,#
1995,12,1,18.1,C
1995,12,2,15.7,#
1995,12,3,16.2,#
1995,12,4,15.3,#
1995,12,5,15.5,#
1995,12,6,15.2,C
1995,12,7,13.9,C
1995,12,8,11.8,C
1995,12,9,9.9,C
1995,12,10,13.1,C
1995,12,11,14.3,C
1995,12,12,15.1,C
1995,12,13,16.8,#
1995,12,14,18.1,C
1995,12,15,18.3,C
1995,12,16,18.3,C
1995,12,17,16.5,C
1995,12,18,13.9,C
1995,12,19,14.6,#
1995,12,20,15.5,#
1995,12,21,13.3,#
1995,12,22,12.9,#
1995,12,23,13.1,#
1995,12,24,14.7,#
1995,12,25,12.4,C
1995,12,26,11.7,C
1995,12,27,11.6,#
1995,12,28,13.8,C
1995,12,29,13.7,#
1995,12,30,10.9,C
1995,12,31,6.8,#
1996,1,1,7.7,#
1996,1,2,8.9,#
1996,1,3,***,
1996,1,4,17.4,#
1996,1,5,17.7,#
1996,1,6,***,
1996,1,7,***,
1996,1,8,***,
1996,1,9,***,
1996,1,10,***,
1996,1,11,16.7,#
1996,1,12,17.3,C
1996,1,13,16.5,C
1996,1,14,16.0,#
1996,1,15,18.5,C
1996,1,16,16.7,C
1996,1,17,17.2,C
1996,1,18,19.6,#
1996,1,19,13.3,C
1996,1,20,14.7,#
1996,1,21,17.4,C
1996,1,22,17.2,#
1996,1,23,15.9,#
1996,1,24,17.1,#
1996,1,25,14.8,#
1996,1,26,13.0,C
1996,1,27,12.1,C
1996,1,28,13.2,#
1996,1,29,14.1,#
1996,1,30,14.3,C
1996,1,31,15.2,#
1996,2,1,13.4,C
1996,2,2,13.5,C
1996,2,3,12.2,C
1996,2,4,12.5,C
1996,2,5,14.9,C
1996,2,6,13.5,C
1996,2,7,15.5,C
1996,2,8,17.8,C
1996,2,9,16.9,C
1996,2,10,12.9,C
1996,2,11,13.8,C
1996,2,12,14.9,C
1996,2,13,16.6,C
1996,2,14,18.3,#
1996,2,15,21.0,#
1996,2,16,17.1,#
1996,2,17,16.7,C
1996,2,18,8.2,C
1996,2,19,6.1,C
1996,2,20,5.1,C
1996,2,21,5.1,C
1996,2,22,7.0,C
1996,2,23,7.9,C
1996,2,24,8.7,C
1996,2,25,10.8,C
1996,2,26,11.3,C
1996,2,27,10.2,C
1996,2,28,12.5,C
1996,2,29,16.4,C
1996,3,1,16.5,C
1996,3,2,13.2,C
1996,3,3,12.9,C
1996,3,4,14.0,C
1996,3,5,14.5,C
1996,3,6,17.9,#
1996,3,7,19.0,#
1996,3,8,17.7,#
1996,3,9,15.0,#
1996,3,10,9.9,C
1996,3,11,12.3,C
1996,3,12,13.0,C
1996,3,13,15.1,C
1996,3,14,17.8,C
1996,3,15,22.1,C
1996,3,16,23.3,#
1996,3,17,23.7,C
1996,3,18,21.6,#
1996,3,19,16.2,C
1996,3,20,17.1,C
1996,3,21,18.2,C
1996,3,22,19.0,#
1996,3,23,17.9,#
1996,3,24,19.3,#
1996,3,25,19.9,#
1996,3,26,18.4,#
1996,3,27,21.1,#
1996,3,28,19.1,#
1996,3,29,20.3,C
1996,3,30,22.2,C
1996,3,31,24.5,C
1996,4,1,19.3,C
1996,4,2,12.3,C
1996,4,3,10.5,C
1996,4,4,12.3,C
1996,4,5,16.6,C
1996,4,6,19.5,C
1996,4,7,21.5,#
1996,4,8,20.9,C
1996,4,9,18.7,#
1996,4,10,18.3,C
1996,4,11,16.5,C
1996,4,12,17.1,C
1996,4,13,17.9,C
1996,4,14,19.5,C
1996,4,15,20.1,C
1996,4,16,21.5,#
1996,4,17,23.6,#
1996,4,18,24.3,C
1996,4,19,23.7,#
1996,4,20,***,
1996,4,21,***,
1996,4,22,18.2,#
1996,4,23,17.1,C
1996,4,24,18.7,C
1996,4,25,20.9,C
1996,4,26,20.8,C
1996,4,27,22.2,C
1996,4,28,23.9,C
1996,4,29,24.3,C
1996,4,30,22.6,C
1996,5,1,22.9,C
1996,5,2,25.5,C
1996,5,3,23.6,C
1996,5,4,24.8,C
1996,5,5,22.5,C
1996,5,6,21.2,C
1996,5,7,24.3,C
1996,5,8,22.9,C
1996,5,9,21.5,C
1996,5,10,21.6,#
1996,5,11,21.3,C
1996,5,12,22.9,C
1996,5,13,23.2,C
1996,5,14,23.3,C
1996,5,15,23.8,C
1996,5,16,23.9,C
1996,5,17,23.2,C
1996,5,18,23.4,C
1996,5,19,22.8,C
1996,5,20,25.5,C
1996,5,21,25.5,C
1996,5,22,25.5,C
1996,5,23,25.1,C
1996,5,24,24.8,C
1996,5,25,25.4,C
1996,5,26,24.1,C
1996,5,27,24.4,C
1996,5,28,25.6,C
1996,5,29,24.6,C
1996,5,30,25.9,C
1996,5,31,26.2,C
1996,6,1,27.2,C
1996,6,2,26.9,C
1996,6,3,28.0,C
1996,6,4,27.7,C
1996,6,5,27.3,C
1996,6,6,27.5,C
1996,6,7,27.5,C
1996,6,8,27.4,C
1996,6,9,27.7,C
1996,6,10,27.4,C
1996,6,11,27.1,C
1996,6,12,27.3,#
1996,6,13,27.3,C
1996,6,14,26.8,C
1996,6,15,26.4,C
1996,6,16,25.5,C
1996,6,17,27.0,C
1996,6,18,26.8,C
1996,6,19,27.3,C
1996,6,20,27.8,C
1996,6,21,27.7,C
1996,6,22,24.9,C
1996,6,23,24.7,C
1996,6,24,26.4,C
1996,6,25,27.8,C
1996,6,26,28.5,C
1996,6,27,28.3,C
1996,6,28,26.5,C
1996,6,29,27.7,C
1996,6,30,28.2,C
1996,7,1,28.3,C
1996,7,2,28.7,C
1996,7,3,28.3,C
1996,7,4,27.9,C
1996,7,5,27.5,C
1996,7,6,27.4,C
1996,7,7,28.1,C
1996,7,8,27.9,C
1996,7,9,27.6,C
1996,7,10,28.6,C
1996,7,11,28.6,C
1996,7,12,26.0,C
1996,7,13,27.6,C
1996,7,14,28.2,C
1996,7,15,28.2,C
1996,7,16,27.9,C
1996,7,17,28.6,C
1996,7,18,27.1,C
1996,7,19,27.5,C
1996,7,20,29.5,C
1996,7,21,29.0,C
1996,7,22,27.8,C
1996,7,23,27.7,C
1996,7,24,28.1,C
1996,7,25,29.7,C
1996,7,26,30.4,C
1996,7,27,26.9,C
1996,7,28,27.6,C
1996,7,29,27.6,C
1996,7,30,27.4,C
1996,7,31,29.5,C
1996,8,1,31.0,C
1996,8,2,28.9,C
1996,8,3,27.7,C
1996,8,4,27.5,#
1996,8,5,***,
1996,8,6,***,
1996,8,7,***,
1996,8,8,28.5,#
1996,8,9,27.7,C
1996,8,10,27.3,C
1996,8,11,26.2,C
1996,8,12,27.6,C
1996,8,13,27.3,#
1996,8,14,***,
1996,8,15,23.7,#
1996,8,16,25.2,C
1996,8,17,24.3,C
1996,8,18,24.6,C
1996,8,19,26.2,C
1996,8,20,28.2,C
1996,8,21,28.6,C
1996,8,22,28.2,C
1996,8,23,27.2,C
1996,8,24,27.3,C
1996,8,25,25.9,C
1996,8,26,25.7,C
1996,8,27,26.8,C
1996,8,28,27.7,C
1996,8,29,27.4,C
1996,8,30,27.4,C
1996,8,31,27.3,C
1996,9,1,26.8,C
1996,9,2,26.1,#
1996,9,3,***,
1996,9,4,***,
1996,9,5,24.2,#
1996,9,6,27.0,C
1996,9,7,27.3,C
1996,9,8,28.3,C
1996,9,9,27.8,C
1996,9,10,28.0,C
1996,9,11,28.8,C
1996,9,12,29.5,C
1996,9,13,26.9,C
1996,9,14,26.1,C
1996,9,15,26.5,C
1996,9,16,27.6,C
1996,9,17,26.6,C
1996,9,18,27.0,C
1996,9,19,27.1,C
1996,9,20,27.1,C
1996,9,21,25.1,C
1996,9,22,24.4,#
1996,9,23,25.5,C
1996,9,24,24.8,C
1996,9,25,25.0,C
1996,9,26,26.3,C
1996,9,27,26.3,C
1996,9,28,25.6,C
1996,9,29,26.3,C
1996,9,30,25.6,C
1996,10,1,23.1,#
1996,10,2,24.5,C
1996,10,3,25.2,C
1996,10,4,25.0,#
1996,10,5,25.5,#
1996,10,6,26.4,C
1996,10,7,26.6,C
1996,10,8,25.9,C
1996,10,9,23.7,C
1996,10,10,24.3,C
1996,10,11,24.9,C
1996,10,12,25.2,C
1996,10,13,25.6,C
1996,10,14,26.1,C
1996,10,15,26.4,C
1996,10,16,25.6,C
1996,10,17,24.6,C
1996,10,18,23.6,C
1996,10,19,24.1,C
1996,10,20,21.8,C
1996,10,21,22.9,C
1996,10,22,24.2,C
1996,10,23,25.5,C
1996,10,24,23.2,C
1996,10,25,24.1,C
1996,10,26,23.5,C
1996,10,27,22.9,C
1996,10,28,23.9,#
1996,10,29,23.8,C
1996,10,30,25.0,C
1996,10,31,24.8,C
1996,11,1,24.8,C
1996,11,2,23.9,#
1996,11,3,24.6,C
1996,11,4,25.1,C
1996,11,5,24.8,#
1996,11,6,25.1,#
1996,11,7,25.1,C
1996,11,8,22.1,#
1996,11,9,23.6,C
1996,11,10,23.0,C
1996,11,11,23.0,C
1996,11,12,21.9,C
1996,11,13,21.3,C
1996,11,14,20.5,C
1996,11,15,20.9,C
1996,11,16,19.3,C
1996,11,17,20.5,C
1996,11,18,16.1,C
1996,11,19,17.6,C
1996,11,20,18.6,C
1996,11,21,20.1,C
1996,11,22,21.2,C
1996,11,23,20.8,C
1996,11,24,20.0,#
1996,11,25,21.6,#
1996,11,26,21.8,C
1996,11,27,21.4,#
1996,11,28,21.2,C
1996,11,29,21.0,C
1996,11,30,17.3,C
1996,12,1,16.6,C
1996,12,2,16.3,C
1996,12,3,18.6,C
1996,12,4,20.1,C
1996,12,5,17.8,C
1996,12,6,13.2,#
1996,12,7,***,
1996,12,8,***,
1996,12,9,***,
1996,12,10,15.3,#
1996,12,11,14.9,C
1996,12,12,15.4,C
1996,12,13,14.4,C
1996,12,14,13.7,C
1996,12,15,15.2,C
1996,12,16,17.9,C
1996,12,17,19.5,#
1996,12,18,16.8,C
1996,12,19,15.2,C
1996,12,20,13.2,C
1996,12,21,13.0,C
1996,12,22,12.7,C
1996,12,23,13.4,C
1996,12,24,13.4,C
1996,12,25,13.3,#
1996,12,26,18.1,C
1996,12,27,16.8,C
1996,12,28,16.2,C
1996,12,29,16.5,C
1996,12,30,14.8,C
1996,12,31,15.0,C
1997,1,1,15.1,C
1997,1,2,16.9,C
1997,1,3,15.8,C
1997,1,4,16.2,C
1997,1,5,14.5,C
1997,1,6,12.3,C
1997,1,7,12.0,C
1997,1,8,10.9,C
1997,1,9,10.2,C
1997,1,10,10.1,C
1997,1,11,9.3,C
1997,1,12,10.5,C
1997,1,13,15.5,C
1997,1,14,15.9,C
1997,1,15,15.8,C
1997,1,16,15.3,C
1997,1,17,16.1,C
1997,1,18,16.5,C
1997,1,19,16.4,C
1997,1,20,16.1,C
1997,1,21,17.6,C
1997,1,22,15.6,C
1997,1,23,14.0,C
1997,1,24,9.5,C
1997,1,25,9.2,C
1997,1,26,11.4,C
1997,1,27,11.3,C
1997,1,28,11.8,C
1997,1,29,12.4,C
1997,1,30,15.5,C
1997,1,31,16.6,C
1997,2,1,16.2,C
1997,2,2,16.5,C
1997,2,3,13.1,C
1997,2,4,13.8,C
1997,2,5,14.0,C
1997,2,6,12.6,C
1997,2,7,12.3,C
1997,2,8,13.3,C
1997,2,9,14.0,C
1997,2,10,13.6,C
1997,2,11,13.1,C
1997,2,12,12.4,C
1997,2,13,12.7,C
1997,2,14,13.1,#
1997,2,15,12.7,C
1997,2,16,11.4,C
1997,2,17,11.3,C
1997,2,18,11.7,C
1997,2,19,13.1,C
1997,2,20,12.9,C
1997,2,21,14.4,C
1997,2,22,15.8,C
1997,2,23,15.3,C
1997,2,24,17.2,C
1997,2,25,18.2,C
1997,2,26,19.6,C
1997,2,27,19.0,C
1997,2,28,17.9,C
1997,3,1,18.1,C
1997,3,2,16.1,C
1997,3,3,13.8,C
1997,3,4,14.1,C
1997,3,5,16.0,C
1997,3,6,16.3,C
1997,3,7,17.6,C
1997,3,8,18.7,C
1997,3,9,18.9,#
1997,3,10,20.0,C
1997,3,11,19.9,C
1997,3,12,21.0,C
1997,3,13,21.4,C
1997,3,14,20.4,C
1997,3,15,20.4,C
1997,3,16,19.2,C
1997,3,17,16.5,C
1997,3,18,17.9,C
1997,3,19,19.5,C
1997,3,20,15.8,C
1997,3,21,17.5,C
1997,3,22,17.9,C
1997,3,23,15.3,C
1997,3,24,16.1,C
1997,3,25,17.2,C
1997,3,26,19.5,C
1997,3,27,18.5,C
1997,3,28,18.1,C
1997,3,29,19.1,C
1997,3,30,19.5,C
1997,3,31,19.6,C
1997,4,1,19.0,C
1997,4,2,21.1,C
1997,4,3,21.7,C
1997,4,4,19.9,C
1997,4,5,20.7,C
1997,4,6,19.5,C
1997,4,7,19.2,C
1997,4,8,20.9,#
1997,4,9,21.9,C
1997,4,10,19.3,C
1997,4,11,20.1,C
1997,4,12,20.4,#
1997,4,13,20.7,#
1997,4,14,21.7,#
1997,4,15,22.8,#
1997,4,16,20.8,#
1997,4,17,20.9,#
1997,4,18,22.1,C
1997,4,19,21.4,C
1997,4,20,21.4,C
1997,4,21,22.9,C
1997,4,22,23.0,C
1997,4,23,21.6,C
1997,4,24,20.0,#
1997,4,25,17.7,#
1997,4,26,19.2,C
1997,4,27,19.3,#
1997,4,28,21.4,#
1997,4,29,23.3,C
1997,4,30,23.1,C
1997,5,1,23.2,C
1997,5,2,24.0,C
1997,5,3,23.4,C
1997,5,4,23.0,C
1997,5,5,23.4,C
1997,5,6,24.2,C
1997,5,7,23.0,C
1997,5,8,23.6,C
1997,5,9,22.6,C
1997,5,10,21.6,C
1997,5,11,25.0,C
1997,5,12,26.4,C
1997,5,13,26.6,C
1997,5,14,26.8,C
1997,5,15,26.3,C
1997,5,16,25.1,#
1997,5,17,***,
1997,5,18,***,
1997,5,19,***,
1997,5,20,24.5,#
1997,5,21,23.3,C
1997,5,22,22.0,C
1997,5,23,21.3,C
1997,5,24,21.3,C
1997,5,25,22.4,C
1997,5,26,21.6,C
1997,5,27,21.9,C
1997,5,28,22.8,C
1997,5,29,23.8,C
1997,5,30,24.4,C
1997,5,31,24.4,C
1997,6,1,25.3,C
1997,6,2,26.6,C
1997,6,3,26.3,C
1997,6,4,25.6,C
1997,6,5,26.5,C
1997,6,6,27.6,C
1997,6,7,27.4,C
1997,6,8,27.8,C
1997,6,9,27.9,C
1997,6,10,26.7,C
1997,6,11,24.7,C
1997,6,12,24.9,C
1997,6,13,23.8,C
1997,6,14,24.2,C
1997,6,15,23.2,C
1997,6,16,22.5,C
1997,6,17,22.5,C
1997,6,18,23.1,C
1997,6,19,24.9,C
1997,6,20,25.8,C
1997,6,21,26.2,C
1997,6,22,24.4,C
1997,6,23,26.2,C
1997,6,24,25.4,C
1997,6,25,26.4,#
1997,6,26,23.6,#
1997,6,27,25.9,#
1997,6,28,23.5,#
1997,6,29,***,
1997,6,30,***,
1997,7,1,***,
1997,7,2,***,
1997,7,3,***,
1997,7,4,***,
1997,7,5,***,
1997,7,6,***,
1997,7,7,***,
1997,7,8,***,
1997,7,9,***,
1997,7,10,***,
1997,7,11,***,
1997,7,12,***,
1997,7,13,***,
1997,7,14,***,
1997,7,15,***,
1997,7,16,***,
1997,7,17,***,
1997,7,18,25.9,#
1997,7,19,24.8,C
1997,7,20,25.6,C
1997,7,21,26.5,C
1997,7,22,25.9,C
1997,7,23,26.0,C
1997,7,24,26.1,C
1997,7,25,25.0,#
1997,7,26,***,
1997,7,27,***,
1997,7,28,***,
1997,7,29,***,
1997,7,30,***,
1997,7,31,***,
1997,8,1,***,
1997,8,2,***,
1997,8,3,***,
1997,8,4,***,
1997,8,5,***,
1997,8,6,28.2,#
1997,8,7,25.7,C
1997,8,8,24.9,C
1997,8,9,25.1,C
1997,8,10,25.8,C
1997,8,11,26.9,C
1997,8,12,25.0,C
1997,8,13,25.0,C
1997,8,14,25.4,C
1997,8,15,25.8,C
1997,8,16,25.4,C
1997,8,17,26.2,C
1997,8,18,27.6,C
1997,8,19,27.6,C
1997,8,20,26.7,C
1997,8,21,25.3,C
1997,8,22,25.3,C
1997,8,23,26.7,C
1997,8,24,25.8,C
1997,8,25,26.6,C
1997,8,26,26.7,C
1997,8,27,27.0,C
1997,8,28,27.2,C
1997,8,29,29.1,C
1997,8,30,28.4,C
1997,8,31,28.5,C
1997,9,1,27.8,C
1997,9,2,26.9,C
1997,9,3,25.9,C
1997,9,4,25.4,C
1997,9,5,25.6,C
1997,9,6,26.2,C
1997,9,7,23.9,C
1997,9,8,24.5,C
1997,9,9,24.8,C
1997,9,10,25.3,C
1997,9,11,25.3,C
1997,9,12,25.3,C
1997,9,13,25.9,#
1997,9,14,25.7,#
1997,9,15,25.1,C
1997,9,16,25.2,C
1997,9,17,25.2,#
1997,9,18,24.9,#
1997,9,19,26.2,#
1997,9,20,25.7,#
1997,9,21,18.5,#
1997,9,22,22.3,C
1997,9,23,24.9,C
1997,9,24,24.8,C
1997,9,25,24.3,C
1997,9,26,23.6,#
1997,9,27,21.8,C
1997,9,28,18.9,C
1997,9,29,19.5,C
1997,9,30,21.3,C
1997,10,1,23.4,C
1997,10,2,25.0,C
1997,10,3,24.6,C
1997,10,4,25.6,C
1997,10,5,25.1,C
1997,10,6,23.5,#
1997,10,7,25.2,#
1997,10,8,23.2,#
1997,10,9,23.2,#
1997,10,10,23.5,C
1997,10,11,24.5,C
1997,10,12,24.4,C
1997,10,13,24.0,C
1997,10,14,23.6,C
1997,10,15,23.8,C
1997,10,16,24.8,C
1997,10,17,25.9,#
1997,10,18,24.0,C
1997,10,19,24.7,C
1997,10,20,24.6,C
1997,10,21,24.6,#
1997,10,22,23.8,#
1997,10,23,24.9,#
1997,10,24,23.4,#
1997,10,25,22.8,#
1997,10,26,22.6,#
1997,10,27,19.5,#
1997,10,28,18.1,C
1997,10,29,20.7,C
1997,10,30,21.1,C
1997,10,31,19.8,C
1997,11,1,18.3,C
1997,11,2,18.1,C
1997,11,3,19.3,C
1997,11,4,20.6,C
1997,11,5,17.7,C
1997,11,6,15.1,C
1997,11,7,17.2,C
1997,11,8,19.6,C
1997,11,9,20.7,C
1997,11,10,20.6,C
1997,11,11,21.8,C
1997,11,12,21.7,C
1997,11,13,20.6,C
1997,11,14,20.6,C
1997,11,15,21.5,C
1997,11,16,21.2,C
1997,11,17,15.8,C
1997,11,18,14.8,C
1997,11,19,16.9,C
1997,11,20,19.3,#
1997,11,21,21.4,#
1997,11,22,20.3,#
1997,11,23,***,
1997,11,24,22.4,#
1997,11,25,23.5,C
1997,11,26,23.7,C
1997,11,27,24.3,C
1997,11,28,23.1,C
1997,11,29,20.0,C
1997,11,30,19.5,C
1997,12,1,20.2,C
1997,12,2,13.5,C
1997,12,3,13.6,C
1997,12,4,15.5,C
1997,12,5,19.5,C
1997,12,6,21.4,C
1997,12,7,19.2,C
1997,12,8,13.6,C
1997,12,9,12.8,C
1997,12,10,12.4,C
1997,12,11,12.0,C
1997,12,12,12.0,C
1997,12,13,12.5,C
1997,12,14,14.2,C
1997,12,15,14.8,C
1997,12,16,16.8,C
1997,12,17,17.3,C
1997,12,18,17.2,C
1997,12,19,18.9,C
1997,12,20,18.8,C
1997,12,21,19.8,C
1997,12,22,16.3,C
1997,12,23,13.5,C
1997,12,24,13.4,C
1997,12,25,17.5,C
1997,12,26,17.6,C
1997,12,27,17.4,C
1997,12,28,17.7,C
1997,12,29,16.4,C
1997,12,30,17.8,C
1997,12,31,18.7,C
1998,1,1,18.0,C
1998,1,2,18.1,C
1998,1,3,19.2,C
1998,1,4,18.4,C
1998,1,5,13.2,C
1998,1,6,14.9,C
1998,1,7,17.4,C
1998,1,8,19.3,C
1998,1,9,18.4,C
1998,1,10,19.5,C
1998,1,11,19.3,C
1998,1,12,16.1,C
1998,1,13,18.4,C
1998,1,14,19.1,C
1998,1,15,11.9,C
1998,1,16,13.4,C
1998,1,17,14.2,C
1998,1,18,10.1,C
1998,1,19,9.0,C
1998,1,20,11.2,C
1998,1,21,12.2,C
1998,1,22,16.0,C
1998,1,23,12.2,C
1998,1,24,7.9,C
1998,1,25,9.0,C
1998,1,26,11.0,C
1998,1,27,13.9,C
1998,1,28,12.7,C
1998,1,29,11.5,C
1998,1,30,13.5,C
1998,1,31,15.3,C
1998,2,1,16.7,C
1998,2,2,16.1,C
1998,2,3,17.6,C
1998,2,4,10.2,C
1998,2,5,7.2,C
1998,2,6,7.7,C
1998,2,7,10.1,C
1998,2,8,11.1,C
1998,2,9,14.2,C
1998,2,10,16.9,C
1998,2,11,16.3,C
1998,2,12,18.0,C
1998,2,13,19.6,C
1998,2,14,19.8,#
1998,2,15,***,
1998,2,16,***,
1998,2,17,***,
1998,2,18,***,
1998,2,19,***,
1998,2,20,***,
1998,2,21,***,
1998,2,22,***,
1998,2,23,13.9,#
1998,2,24,14.4,C
1998,2,25,14.7,C
1998,2,26,13.9,C
1998,2,27,14.0,#
1998,2,28,13.6,C
1998,3,1,14.1,C
1998,3,2,15.0,C
1998,3,3,16.7,C
1998,3,4,16.8,C
1998,3,5,17.4,C
1998,3,6,17.3,C
1998,3,7,18.6,C
1998,3,8,18.6,C
1998,3,9,22.8,C
1998,3,10,15.4,C
1998,3,11,12.4,C
1998,3,12,13.4,C
1998,3,13,14.7,C
1998,3,14,16.7,C
1998,3,15,17.1,C
1998,3,16,17.6,C
1998,3,17,17.7,#
1998,3,18,17.8,C
1998,3,19,20.0,C
1998,3,20,21.6,C
1998,3,21,15.2,C
1998,3,22,13.4,C
1998,3,23,17.1,#
1998,3,24,17.1,#
1998,3,25,***,
1998,3,26,21.6,#
1998,3,27,22.9,C
1998,3,28,23.2,C
1998,3,29,23.1,C
1998,3,30,21.7,C
1998,3,31,22.5,C
1998,4,1,23.6,C
1998,4,2,21.9,C
1998,4,3,19.9,C
1998,4,4,22.1,C
1998,4,5,23.9,C
1998,4,6,23.3,C
1998,4,7,22.5,C
1998,4,8,24.1,#
1998,4,9,26.3,#
1998,4,10,***,
1998,4,11,***,
1998,4,12,***,
1998,4,13,***,
1998,4,14,23.9,#
1998,4,15,***,
1998,4,16,***,
1998,4,17,***,
1998,4,18,***,
1998,4,19,***,
1998,4,20,***,
1998,4,21,***,
1998,4,22,26.0,#
1998,4,23,26.2,C
1998,4,24,26.4,C
1998,4,25,24.9,C
1998,4,26,24.5,C
1998,4,27,22.4,C
1998,4,28,23.8,C
1998,4,29,24.2,C
1998,4,30,23.9,C
1998,5,1,26.3,C
1998,5,2,25.3,C
1998,5,3,23.8,C
1998,5,4,24.0,C
1998,5,5,24.9,C
1998,5,6,25.1,C
1998,5,7,26.3,#
1998,5,8,26.8,C
1998,5,9,27.0,C
1998,5,10,27.4,C
1998,5,11,27.5,C
1998,5,12,26.8,C
1998,5,13,26.6,C
1998,5,14,26.9,C
1998,5,15,24.7,#
1998,5,16,25.6,C
1998,5,17,25.0,#
1998,5,18,26.4,C
1998,5,19,25.6,C
1998,5,20,25.4,C
1998,5,21,25.2,C
1998,5,22,26.4,C
1998,5,23,27.3,C
1998,5,24,24.7,C
1998,5,25,21.0,C
1998,5,26,22.9,C
1998,5,27,23.6,C
1998,5,28,24.9,C
1998,5,29,26.2,C
1998,5,30,25.5,C
1998,5,31,25.7,C
1998,6,1,27.3,C
1998,6,2,26.7,C
1998,6,3,26.3,C
1998,6,4,25.6,C
1998,6,5,25.6,C
1998,6,6,22.0,C
1998,6,7,22.2,C
1998,6,8,24.4,C
1998,6,9,24.7,#
1998,6,10,***,
1998,6,11,***,
1998,6,12,***,
1998,6,13,***,
1998,6,14,***,
1998,6,15,30.1,#
1998,6,16,29.6,C
1998,6,17,29.8,C
1998,6,18,29.5,C
1998,6,19,28.1,C
1998,6,20,29.1,C
1998,6,21,28.8,C
1998,6,22,28.0,C
1998,6,23,25.8,C
1998,6,24,27.4,C
1998,6,25,28.3,#
1998,6,26,27.3,C
1998,6,27,25.6,C
1998,6,28,27.3,C
1998,6,29,28.0,C
1998,6,30,28.0,C
1998,7,1,27.5,C
1998,7,2,26.1,C
1998,7,3,25.3,#
1998,7,4,***,
1998,7,5,***,
1998,7,6,25.5,#
1998,7,7,26.0,#
1998,7,8,26.3,C
1998,7,9,26.6,#
1998,7,10,30.0,#
1998,7,11,29.5,#
1998,7,12,27.4,C
1998,7,13,25.9,#
1998,7,14,28.4,#
1998,7,15,29.3,#
1998,7,16,28.6,C
1998,7,17,29.8,C
1998,7,18,29.6,#
1998,7,19,30.0,C
1998,7,20,29.4,C
1998,7,21,29.1,C
1998,7,22,29.1,C
1998,7,23,29.4,C
1998,7,24,29.3,C
1998,7,25,29.5,C
1998,7,26,29.0,C
1998,7,27,29.6,C
1998,7,28,29.5,C
1998,7,29,29.3,C
1998,7,30,29.3,C
1998,7,31,29.4,C
1998,8,1,29.6,C
1998,8,2,30.0,C
1998,8,3,29.6,C
1998,8,4,29.2,C
1998,8,5,29.5,C
1998,8,6,27.8,C
1998,8,7,26.7,C
1998,8,8,27.7,C
1998,8,9,29.0,C
1998,8,10,27.5,C
1998,8,11,25.5,C
1998,8,12,28.1,C
1998,8,13,28.2,C
1998,8,14,27.9,C
1998,8,15,27.9,C
1998,8,16,27.9,C
1998,8,17,28.2,C
1998,8,18,28.8,C
1998,8,19,28.6,C
1998,8,20,29.1,C
1998,8,21,29.8,C
1998,8,22,27.9,C
1998,8,23,28.0,C
1998,8,24,27.9,C
1998,8,25,28.4,C
1998,8,26,28.3,C
1998,8,27,27.0,C
1998,8,28,25.9,C
1998,8,29,28.4,C
1998,8,30,28.0,C
1998,8,31,26.2,C
1998,9,1,25.1,C
1998,9,2,26.1,C
1998,9,3,26.9,C
1998,9,4,26.4,C
1998,9,5,27.1,C
1998,9,6,25.4,C
1998,9,7,25.9,C
1998,9,8,26.8,C
1998,9,9,26.1,C
1998,9,10,25.3,C
1998,9,11,26.6,C
1998,9,12,26.1,C
1998,9,13,26.1,C
1998,9,14,27.6,C
1998,9,15,28.1,C
1998,9,16,28.0,C
1998,9,17,27.9,C
1998,9,18,26.7,C
1998,9,19,25.7,C
1998,9,20,25.9,C
1998,9,21,26.5,C
1998,9,22,26.3,C
1998,9,23,27.2,C
1998,9,24,27.0,C
1998,9,25,26.3,C
1998,9,26,25.7,C
1998,9,27,27.7,C
1998,9,28,27.3,C
1998,9,29,26.3,C
1998,9,30,25.9,C
1998,10,1,25.6,C
1998,10,2,25.7,C
1998,10,3,27.0,C
1998,10,4,25.5,C
1998,10,5,25.9,C
1998,10,6,26.4,C
1998,10,7,26.8,C
1998,10,8,26.6,C
1998,10,9,25.8,C
1998,10,10,24.7,C
1998,10,11,26.3,C
1998,10,12,26.9,C
1998,10,13,26.0,C
1998,10,14,27.9,C
1998,10,15,26.5,C
1998,10,16,25.7,C
1998,10,17,25.8,C
1998,10,18,22.8,C
1998,10,19,23.9,C
1998,10,20,24.3,C
1998,10,21,23.2,C
1998,10,22,22.8,C
1998,10,23,23.5,C
1998,10,24,23.4,C
1998,10,25,22.0,C
1998,10,26,21.6,C
1998,10,27,23.1,C
1998,10,28,22.5,C
1998,10,29,22.4,C
1998,10,30,22.7,C
1998,10,31,21.8,C
1998,11,1,23.1,C
1998,11,2,22.6,C
1998,11,3,21.3,C
1998,11,4,21.9,C
1998,11,5,23.2,C
1998,11,6,22.0,C
1998,11,7,19.5,C
1998,11,8,19.7,C
1998,11,9,18.7,C
1998,11,10,18.5,C
1998,11,11,18.7,C
1998,11,12,19.3,C
1998,11,13,19.9,C
1998,11,14,20.3,C
1998,11,15,23.3,C
1998,11,16,23.8,C
1998,11,17,23.3,C
1998,11,18,21.9,C
1998,11,19,22.0,C
1998,11,20,21.5,C
1998,11,21,22.4,C
1998,11,22,21.4,C
1998,11,23,20.0,C
1998,11,24,20.4,C
1998,11,25,20.6,C
1998,11,26,19.0,C
1998,11,27,20.4,C
1998,11,28,19.3,C
1998,11,29,20.9,C
1998,11,30,22.1,C
1998,12,1,22.9,C
1998,12,2,22.6,C
1998,12,3,16.2,C
1998,12,4,15.2,C
1998,12,5,17.8,C
1998,12,6,18.2,C
1998,12,7,16.3,C
1998,12,8,15.1,C
1998,12,9,13.9,C
1998,12,10,15.7,C
1998,12,11,15.6,C
1998,12,12,15.4,C
1998,12,13,16.4,C
1998,12,14,13.3,C
1998,12,15,15.4,C
1998,12,16,16.4,C
1998,12,17,16.0,C
1998,12,18,19.3,C
1998,12,19,17.7,C
1998,12,20,19.1,C
1998,12,21,20.6,C
1998,12,22,20.2,C
1998,12,23,19.4,C
1998,12,24,17.7,C
1998,12,25,16.1,C
1998,12,26,16.4,C
1998,12,27,16.1,C
1998,12,28,17.1,C
1998,12,29,16.3,C
1998,12,30,17.9,C
1998,12,31,17.7,C
1999,1,1,16.9,C
1999,1,2,15.7,C
1999,1,3,14.8,C
1999,1,4,13.1,C
1999,1,5,12.0,C
1999,1,6,13.2,C
1999,1,7,15.3,C
1999,1,8,12.5,C
1999,1,9,14.7,C
1999,1,10,13.7,C
1999,1,11,13.8,C
1999,1,12,9.0,C
1999,1,13,10.7,C
1999,1,14,12.1,C
1999,1,15,10.1,C
1999,1,16,11.7,C
1999,1,17,13.7,C
1999,1,18,15.6,C
1999,1,19,18.9,C
1999,1,20,16.6,C
1999,1,21,16.0,C
1999,1,22,17.1,C
1999,1,23,19.9,C
1999,1,24,21.1,C
1999,1,25,19.3,C
1999,1,26,18.0,C
1999,1,27,17.4,C
1999,1,28,19.8,C
1999,1,29,18.1,C
1999,1,30,17.8,C
1999,1,31,19.4,C
1999,2,1,21.0,C
1999,2,2,18.4,C
1999,2,3,15.5,C
1999,2,4,12.6,C
1999,2,5,12.3,C
1999,2,6,13.1,C
1999,2,7,13.8,C
1999,2,8,14.1,C
1999,2,9,15.5,C
1999,2,10,18.9,C
1999,2,11,19.3,C
1999,2,12,17.7,C
1999,2,13,15.2,C
1999,2,14,15.7,C
1999,2,15,16.3,C
1999,2,16,16.2,C
1999,2,17,18.8,C
1999,2,18,17.1,#
1999,2,19,***,
1999,2,20,***,
1999,2,21,***,
1999,2,22,***,
1999,2,23,***,
1999,2,24,***,
1999,2,25,***,
1999,2,26,23.0,#
1999,2,27,20.8,#
1999,2,28,17.9,#
1999,3,1,18.2,#
1999,3,2,18.2,#
1999,3,3,19.1,#
1999,3,4,20.1,C
1999,3,5,19.3,C
1999,3,6,20.0,C
1999,3,7,21.8,C
1999,3,8,19.2,C
1999,3,9,20.1,C
1999,3,10,19.1,C
1999,3,11,13.0,C
1999,3,12,13.9,C
1999,3,13,15.9,C
1999,3,14,16.8,C
1999,3,15,16.0,C
1999,3,16,15.5,C
1999,3,17,18.9,C
1999,3,18,22.9,C
1999,3,19,24.4,C
1999,3,20,24.4,C
1999,3,21,17.2,C
1999,3,22,12.9,C
1999,3,23,16.2,C
1999,3,24,19.5,C
1999,3,25,21.8,C
1999,3,26,23.9,C
1999,3,27,24.8,C
1999,3,28,19.5,C
1999,3,29,18.0,C
1999,3,30,17.0,C
1999,3,31,19.2,C
1999,4,1,22.5,C
1999,4,2,24.0,C
1999,4,3,19.7,C
1999,4,4,19.8,C
1999,4,5,20.4,C
1999,4,6,19.8,C
1999,4,7,21.2,C
1999,4,8,22.4,C
1999,4,9,24.0,C
1999,4,10,24.5,C
1999,4,11,22.2,C
1999,4,12,23.8,C
1999,4,13,24.1,C
1999,4,14,22.0,C
1999,4,15,23.0,C
1999,4,16,24.6,C
1999,4,17,25.9,C
1999,4,18,26.9,C
1999,4,19,23.8,C
1999,4,20,22.9,C
1999,4,21,23.8,C
1999,4,22,24.2,C
1999,4,23,25.6,C
1999,4,24,25.3,C
1999,4,25,26.6,C
1999,4,26,26.8,C
1999,4,27,24.0,#
1999,4,28,***,
1999,4,29,***,
1999,4,30,***,
1999,5,1,***,
1999,5,2,***,
1999,5,3,***,
1999,5,4,***,
1999,5,5,20.6,#
1999,5,6,18.4,C
1999,5,7,19.4,#
1999,5,8,***,
1999,5,9,***,
1999,5,10,***,
1999,5,11,***,
1999,5,12,***,
1999,5,13,***,
1999,5,14,24.1,#
1999,5,15,24.4,C
1999,5,16,26.4,C
1999,5,17,27.9,C
1999,5,18,27.2,C
1999,5,19,23.1,C
1999,5,20,24.0,C
1999,5,21,24.9,C
1999,5,22,26.1,C
1999,5,23,27.1,C
1999,5,24,27.7,C
1999,5,25,27.2,C
1999,5,26,27.4,C
1999,5,27,22.5,C
1999,5,28,20.9,C
1999,5,29,22.6,C
1999,5,30,25.1,C
1999,5,31,26.5,#
1999,6,1,27.0,C
1999,6,2,27.3,C
1999,6,3,27.3,C
1999,6,4,27.8,C
1999,6,5,27.0,C
1999,6,6,29.8,C
1999,6,7,26.0,C
1999,6,8,26.9,C
1999,6,9,28.0,C
1999,6,10,28.5,C
1999,6,11,27.7,C
1999,6,12,28.2,C
1999,6,13,28.2,C
1999,6,14,28.2,C
1999,6,15,27.4,C
1999,6,16,27.9,C
1999,6,17,27.1,C
1999,6,18,27.3,C
1999,6,19,27.3,C
1999,6,20,27.2,C
1999,6,21,26.2,C
1999,6,22,26.7,C
1999,6,23,26.6,C
1999,6,24,27.9,C
1999,6,25,28.4,C
1999,6,26,27.8,C
1999,6,27,28.1,C
1999,6,28,28.0,C
1999,6,29,27.9,C
1999,6,30,27.9,C
1999,7,1,28.1,C
1999,7,2,27.9,C
1999,7,3,27.2,C
1999,7,4,26.5,C
1999,7,5,26.6,C
1999,7,6,26.0,C
1999,7,7,26.8,C
1999,7,8,26.4,C
1999,7,9,26.0,C
1999,7,10,27.4,C
1999,7,11,28.0,C
1999,7,12,28.2,C
1999,7,13,28.2,C
1999,7,14,28.6,C
1999,7,15,27.6,C
1999,7,16,27.7,C
1999,7,17,27.9,C
1999,7,18,27.8,C
1999,7,19,28.5,C
1999,7,20,28.7,C
1999,7,21,29.1,C
1999,7,22,28.7,C
1999,7,23,28.7,C
1999,7,24,30.1,C
1999,7,25,29.7,C
1999,7,26,28.2,C
1999,7,27,26.9,C
1999,7,28,28.7,C
1999,7,29,28.6,C
1999,7,30,28.5,C
1999,7,31,28.7,C
1999,8,1,28.4,C
1999,8,2,28.6,C
1999,8,3,27.8,C
1999,8,4,27.4,C
1999,8,5,27.9,C
1999,8,6,28.1,C
1999,8,7,28.5,C
1999,8,8,28.5,C
1999,8,9,27.2,C
1999,8,10,26.8,C
1999,8,11,26.2,C
1999,8,12,25.9,C
1999,8,13,25.3,C
1999,8,14,27.3,C
1999,8,15,27.5,C
1999,8,16,27.5,C
1999,8,17,27.5,C
1999,8,18,27.5,C
1999,8,19,27.4,C
1999,8,20,28.2,C